Provo, UT

10:20 PM MST on December 15, 2019 (GMT -0700)
Provo Municipal

Weather History for KPVU - October, 2019

Change the Weather History Date:

Tuesday, October 1, 2019

  Actual Average Record
Temperature  
Mean Temperature 48 °F -  
Max Temperature 61 °F 70 °F 84 °F (2003)
Min Temperature 35 °F 42 °F 35 °F (2019)
Degree Days  
Heating Degree Days 18    
Moisture  
Dew Point 33 °F    
Average Humidity 60    
Maximum Humidity 89    
Minimum Humidity 27    
Precipitation  
Precipitation 0.00 in - - ()
Sea Level Pressure  
Sea Level Pressure 29.90 in    
Wind  
Wind Speed 3 mph (WNW)    
Max Wind Speed 23 mph    
Max Gust Speed -    
Visibility 10 miles    
Events      
Averages and records for this station are not official NWS values.
T = Trace of Precipitation, MM = Missing Value Source: NWS Daily Summary

Daily Weather History Graph

Daily Weather History Graph

Search for Another Location

Airport or City:

Astronomy

Oct. 01, 2019 Rise Set
Actual Time 7:23 AM MDT 7:09 PM MDT
Civil Twilight 6:56 AM MDT 7:36 PM MDT
Nautical Twilight 6:24 AM MDT 8:07 PM MDT
Astronomical Twilight 5:52 AM MDT 8:39 PM MDT
Moon 10:43 AM MDT (10/1) 9:24 PM MDT (10/1)
Length of Visible Light 12h 40m
Length of Day
11h 46m
Waxing Crescent, 12% of the Moon is Illuminated
Oct 1
Waxing Crescent
Oct 5
First Quarter
Oct 13
Full
Oct 21
Last Quarter
Oct 27
New

Hourly Weather History & Observations

Time (MDT) Temp. Windchill Dew Point Humidity Pressure Visibility Wind Dir Wind Speed Gust Speed Precip Events Conditions
12:56 AM 45.0 °F - 35.1 °F 68% 29.86 in 10.0 mi Calm Calm - N/A   Clear
1:56 AM 43.0 °F - 34.0 °F 71% 29.86 in 10.0 mi Calm Calm - N/A   Clear
2:56 AM 41.0 °F - 34.0 °F 76% 29.87 in 10.0 mi Calm Calm - N/A   Clear
3:56 AM 39.0 °F - 34.0 °F 82% 29.87 in 10.0 mi Calm Calm - N/A   Clear
4:56 AM 36.0 °F - 33.1 °F 89% 29.89 in 10.0 mi Calm Calm - N/A   Clear
5:56 AM 37.9 °F - 33.1 °F 83% 29.89 in 10.0 mi Calm Calm - N/A   Clear
6:56 AM 35.1 °F - 30.9 °F 85% 29.91 in 10.0 mi Calm Calm - N/A   Clear
7:56 AM 35.1 °F 31.0 °F 30.9 °F 85% 29.94 in 10.0 mi East 4.6 mph - N/A   Partly Cloudy
8:56 AM 42.1 °F - 33.1 °F 70% 29.93 in 10.0 mi Calm Calm - N/A   Partly Cloudy
9:56 AM 46.9 °F - 32.0 °F 56% 29.91 in 10.0 mi South 3.5 mph - N/A   Partly Cloudy
10:56 AM 48.0 °F - 32.0 °F 54% 29.92 in 10.0 mi West 5.8 mph - N/A   Clear
11:56 AM 50.0 °F - 34.0 °F 54% 29.92 in 10.0 mi SW 5.8 mph - N/A   Partly Cloudy
12:56 PM 52.0 °F - 35.1 °F 53% 29.91 in 10.0 mi Variable 4.6 mph - N/A   Partly Cloudy
1:56 PM 55.9 °F - 34.0 °F 44% 29.88 in 10.0 mi Variable 5.8 mph - N/A   Partly Cloudy
2:56 PM 57.0 °F - 28.9 °F 34% 29.87 in 10.0 mi WNW 5.8 mph - N/A   Clear
3:56 PM 60.1 °F - 26.1 °F 27% 29.85 in 10.0 mi West 4.6 mph - N/A   Partly Cloudy
4:56 PM 60.1 °F - 27.0 °F 28% 29.86 in 10.0 mi WNW 8.1 mph - N/A   Partly Cloudy
5:56 PM 57.9 °F - 37.0 °F 46% 29.86 in 10.0 mi NW 17.3 mph - N/A   Clear
6:56 PM 54.0 °F - 35.1 °F 49% 29.90 in 10.0 mi NW 23.0 mph - N/A   Clear
7:56 PM 52.0 °F - 35.1 °F 53% 29.93 in 10.0 mi NNW 18.4 mph - N/A   Clear
8:56 PM 50.0 °F - 33.1 °F 52% 29.93 in 10.0 mi Variable 4.6 mph - N/A   Clear
9:56 PM 50.0 °F - 36.0 °F 59% 29.91 in 10.0 mi NNW 12.7 mph - N/A   Clear
10:56 PM 48.0 °F - 35.1 °F 61% 29.92 in 10.0 mi NNW 9.2 mph - N/A   Clear
11:56 PM 48.0 °F - 36.0 °F 63% 29.93 in 10.0 mi Calm Calm - N/A   Mostly Cloudy